Location: ????????
(55.6189°N, 38.3031°E)
Time: 10:55:28
(UTC+00:00)

Cosmos 2360 Rocket - Pass Details

Date: 15 November 2019
Orbit: 832 x 847 km, 71.0° (Epoch: 11 December)

Event Time Altitude Azimuth Distance (km) Brightness Sun altitude
Exits shadow 00:14:07 19° 21° (NNE) 1,913 4.4 -39.4°
Drops below altitude 10° 00:17:43 10° 61° (ENE) 2,480 5.3 -38.9°
Sets 00:20:55 0° 79° (ENE) 3,414 6.2 -38.5°
